Year,Month,Day,Hour,Minute,Value (Times are PST for windgust in km/hr)
2016,10,07,00,00,32.20
2016,10,07,00,01,35.40
2016,10,07,00,02,25.70
2016,10,07,00,03,49.90
2016,10,07,00,04,49.90
2016,10,07,00,05,46.70
2016,10,07,00,06,30.60
2016,10,07,00,07,35.40
2016,10,07,00,08,56.30
2016,10,07,00,09,53.10
2016,10,07,00,10,51.50
2016,10,07,00,11,48.30
2016,10,07,00,12,43.50
2016,10,07,00,13,40.20
2016,10,07,00,14,53.10
2016,10,07,00,15,49.90
2016,10,07,00,16,40.20
2016,10,07,00,17,48.30
2016,10,07,00,18,48.30
2016,10,07,00,19,40.20
2016,10,07,00,20,43.50
2016,10,07,00,21,38.60
2016,10,07,00,22,38.60
2016,10,07,00,23,40.20
2016,10,07,00,24,49.90
2016,10,07,00,25,43.50
2016,10,07,00,26,35.40
2016,10,07,00,27,49.90
2016,10,07,00,28,40.20
2016,10,07,00,29,27.40
2016,10,07,00,30,33.80
2016,10,07,00,31,30.60
2016,10,07,00,32,37.00
2016,10,07,00,33,56.30
2016,10,07,00,34,40.20
2016,10,07,00,35,49.90
2016,10,07,00,36,56.30
2016,10,07,00,37,41.80
2016,10,07,00,38,53.10
2016,10,07,00,39,41.80
2016,10,07,00,40,32.20
2016,10,07,00,41,46.70
2016,10,07,00,42,54.70
2016,10,07,00,43,46.70
2016,10,07,00,44,40.20
2016,10,07,00,45,54.70
2016,10,07,00,46,41.80
2016,10,07,00,47,45.10
2016,10,07,00,48,45.10
2016,10,07,00,49,48.30
2016,10,07,00,50,48.30
2016,10,07,00,51,49.90
2016,10,07,00,52,40.20
2016,10,07,00,53,41.80
2016,10,07,00,54,35.40
2016,10,07,00,55,54.70
2016,10,07,00,56,46.70
2016,10,07,00,57,43.50
2016,10,07,00,58,51.50
2016,10,07,00,59,43.50
2016,10,07,01,00,61.20
2016,10,07,01,01,46.70
2016,10,07,01,02,45.10
2016,10,07,01,03,46.70
2016,10,07,01,04,46.70
2016,10,07,01,05,53.10
2016,10,07,01,06,48.30
2016,10,07,01,07,33.80
2016,10,07,01,08,32.20
2016,10,07,01,09,51.50
2016,10,07,01,10,54.70
2016,10,07,01,11,54.70
2016,10,07,01,12,53.10
2016,10,07,01,13,41.80
2016,10,07,01,14,53.10
2016,10,07,01,15,56.30
2016,10,07,01,16,46.70
2016,10,07,01,17,59.50
2016,10,07,01,18,51.50
2016,10,07,01,19,57.90
2016,10,07,01,20,45.10
2016,10,07,01,21,46.70
2016,10,07,01,22,46.70
2016,10,07,01,23,43.50
2016,10,07,01,24,48.30
2016,10,07,01,25,46.70
2016,10,07,01,26,46.70
2016,10,07,01,27,53.10
2016,10,07,01,28,41.80
2016,10,07,01,29,40.20
2016,10,07,01,30,43.50
2016,10,07,01,31,43.50
2016,10,07,01,32,45.10
2016,10,07,01,33,49.90
2016,10,07,01,34,43.50
2016,10,07,01,35,45.10
2016,10,07,01,36,38.60
2016,10,07,01,37,49.90
2016,10,07,01,38,46.70
2016,10,07,01,39,40.20
2016,10,07,01,40,46.70
2016,10,07,01,41,40.20
2016,10,07,01,42,41.80
2016,10,07,01,43,46.70
2016,10,07,01,44,59.50
2016,10,07,01,45,45.10
2016,10,07,01,46,46.70
2016,10,07,01,47,41.80
2016,10,07,01,48,38.60
2016,10,07,01,49,49.90
2016,10,07,01,50,49.90
2016,10,07,01,51,49.90
2016,10,07,01,52,41.80
2016,10,07,01,53,32.20
2016,10,07,01,54,48.30
2016,10,07,01,55,41.80
2016,10,07,01,56,45.10
2016,10,07,01,57,45.10
2016,10,07,01,58,38.60
2016,10,07,01,59,33.80
2016,10,07,02,00,43.50
2016,10,07,02,01,37.00
2016,10,07,02,02,37.00
2016,10,07,02,03,32.20
2016,10,07,02,04,45.10
2016,10,07,02,05,51.50
2016,10,07,02,06,40.20
2016,10,07,02,07,41.80
2016,10,07,02,08,35.40
2016,10,07,02,09,40.20
2016,10,07,02,10,40.20
2016,10,07,02,11,30.60
2016,10,07,02,12,29.00
2016,10,07,02,13,38.60
2016,10,07,02,14,48.30
2016,10,07,02,15,46.70
2016,10,07,02,16,38.60
2016,10,07,02,17,33.80
2016,10,07,02,18,32.20
2016,10,07,02,19,35.40
2016,10,07,02,20,37.00
2016,10,07,02,21,33.80
2016,10,07,02,22,33.80
2016,10,07,02,23,37.00
2016,10,07,02,24,30.60
2016,10,07,02,25,33.80
2016,10,07,02,26,38.60
2016,10,07,02,27,35.40
2016,10,07,02,28,33.80
2016,10,07,02,29,29.00
2016,10,07,02,30,29.00
2016,10,07,02,31,29.00
2016,10,07,02,32,33.80
2016,10,07,02,33,24.20
2016,10,07,02,34,20.90
2016,10,07,02,35,27.40
2016,10,07,02,36,22.50
2016,10,07,02,37,27.40
2016,10,07,02,38,30.60
2016,10,07,02,39,27.40
2016,10,07,02,40,32.20
2016,10,07,02,41,30.60
2016,10,07,02,42,17.70
2016,10,07,02,43,32.20
2016,10,07,02,44,37.00
2016,10,07,02,45,38.60
2016,10,07,02,46,32.20
2016,10,07,02,47,25.70
2016,10,07,02,48,40.20
2016,10,07,02,49,37.00
2016,10,07,02,50,29.00
2016,10,07,02,51,37.00
2016,10,07,02,52,32.20
2016,10,07,02,53,33.80
2016,10,07,02,54,27.40
2016,10,07,02,55,30.60
2016,10,07,02,56,25.70
2016,10,07,02,57,22.50
2016,10,07,02,58,22.50
2016,10,07,02,59,19.30
2016,10,07,03,00,19.30
2016,10,07,03,01,27.40
2016,10,07,03,02,35.40
2016,10,07,03,03,22.50
2016,10,07,03,04,20.90
2016,10,07,03,05,30.60
2016,10,07,03,06,24.20
2016,10,07,03,07,33.80
2016,10,07,03,08,29.00
2016,10,07,03,09,25.70
2016,10,07,03,10,27.40
2016,10,07,03,11,25.70
2016,10,07,03,12,37.00
2016,10,07,03,13,33.80
2016,10,07,03,14,27.40
2016,10,07,03,15,25.70
2016,10,07,03,16,29.00
2016,10,07,03,17,32.20
2016,10,07,03,18,24.20
2016,10,07,03,19,24.20
2016,10,07,03,20,22.50
2016,10,07,03,21,20.90
2016,10,07,03,22,22.50
2016,10,07,03,23,27.40
2016,10,07,03,24,17.70
2016,10,07,03,25,20.90
2016,10,07,03,26,32.20
2016,10,07,03,27,32.20
2016,10,07,03,28,22.50
2016,10,07,03,29,22.50
2016,10,07,03,30,22.50
2016,10,07,03,31,27.40
2016,10,07,03,32,27.40
2016,10,07,03,33,29.00
2016,10,07,03,34,25.70
2016,10,07,03,35,22.50
2016,10,07,03,36,25.70
2016,10,07,03,37,25.70
2016,10,07,03,38,27.40
2016,10,07,03,39,22.50
2016,10,07,03,40,20.90
2016,10,07,03,41,20.90
2016,10,07,03,42,17.70
2016,10,07,03,43,17.70
2016,10,07,03,44,9.60
2016,10,07,03,45,16.10
2016,10,07,03,46,17.70
2016,10,07,03,47,14.50
2016,10,07,03,48,14.50
2016,10,07,03,49,14.50
2016,10,07,03,50,17.70
2016,10,07,03,51,22.50
2016,10,07,03,52,19.30
2016,10,07,03,53,22.50
2016,10,07,03,54,19.30
2016,10,07,03,55,11.30
2016,10,07,03,56,14.50
2016,10,07,03,57,19.30
2016,10,07,03,58,11.30
2016,10,07,03,59,11.30
2016,10,07,04,00,16.10
2016,10,07,04,01,19.30
2016,10,07,04,02,17.70
2016,10,07,04,03,8.10
2016,10,07,04,04,16.10
2016,10,07,04,05,22.50
2016,10,07,04,06,17.70
2016,10,07,04,07,19.30
2016,10,07,04,08,11.30
2016,10,07,04,09,6.40
2016,10,07,04,10,11.30
2016,10,07,04,11,9.60
2016,10,07,04,12,9.60
2016,10,07,04,13,16.10
2016,10,07,04,14,17.70
2016,10,07,04,15,6.40
2016,10,07,04,16,8.10
2016,10,07,04,17,20.90
2016,10,07,04,18,17.70
2016,10,07,04,19,11.30
2016,10,07,04,20,16.10
2016,10,07,04,21,11.30
2016,10,07,04,22,11.30
2016,10,07,04,23,8.10
2016,10,07,04,24,6.40
2016,10,07,04,25,14.50
2016,10,07,04,26,9.60
2016,10,07,04,27,9.60
2016,10,07,04,28,14.50
2016,10,07,04,29,11.30
2016,10,07,04,30,8.10
2016,10,07,04,31,9.60
2016,10,07,04,32,16.10
2016,10,07,04,33,14.50
2016,10,07,04,34,14.50
2016,10,07,04,35,6.40
2016,10,07,04,36,8.10
2016,10,07,04,37,6.40
2016,10,07,04,38,16.10
2016,10,07,04,39,11.30
2016,10,07,04,40,11.30
2016,10,07,04,41,9.60
2016,10,07,04,42,11.30
2016,10,07,04,43,8.10
2016,10,07,04,44,11.30
2016,10,07,04,45,9.60
2016,10,07,04,46,11.30
2016,10,07,04,47,9.60
2016,10,07,04,48,6.40
2016,10,07,04,49,9.60
2016,10,07,04,50,6.40
2016,10,07,04,51,9.60
2016,10,07,04,52,14.50
2016,10,07,04,53,11.30
2016,10,07,04,54,9.60
2016,10,07,04,55,16.10
2016,10,07,04,56,22.50
2016,10,07,04,57,17.70
2016,10,07,04,58,16.10
2016,10,07,04,59,16.10
2016,10,07,05,00,12.90
2016,10,07,05,01,17.70
2016,10,07,05,02,14.50
2016,10,07,05,03,9.60
2016,10,07,05,04,16.10
2016,10,07,05,05,16.10
2016,10,07,05,06,24.20
2016,10,07,05,07,25.70
2016,10,07,05,08,22.50
2016,10,07,05,09,22.50
2016,10,07,05,10,17.70
2016,10,07,05,11,14.50
2016,10,07,05,12,14.50
2016,10,07,05,13,14.50
2016,10,07,05,14,9.60
2016,10,07,05,15,3.20
2016,10,07,05,16,11.30
2016,10,07,05,17,19.30
2016,10,07,05,18,6.40
2016,10,07,05,19,16.10
2016,10,07,05,20,16.10
2016,10,07,05,21,11.30
2016,10,07,05,22,11.30
2016,10,07,05,23,11.30
2016,10,07,05,24,14.50
2016,10,07,05,25,11.30
2016,10,07,05,26,8.10
2016,10,07,05,27,4.80
2016,10,07,05,28,4.80
2016,10,07,05,29,14.50
2016,10,07,05,30,20.90
2016,10,07,05,31,9.60
2016,10,07,05,32,11.30
2016,10,07,05,33,9.60
2016,10,07,05,34,11.30
2016,10,07,05,35,14.50
2016,10,07,05,36,9.60
2016,10,07,05,37,8.10
2016,10,07,05,38,11.30
2016,10,07,05,39,9.60
2016,10,07,05,40,16.10
2016,10,07,05,41,17.70
2016,10,07,05,42,9.60
2016,10,07,05,43,11.30
2016,10,07,05,44,11.30
2016,10,07,05,45,11.30
2016,10,07,05,46,11.30
2016,10,07,05,47,24.20
2016,10,07,05,48,20.90
2016,10,07,05,49,17.70
2016,10,07,05,50,17.70
2016,10,07,05,51,24.20
2016,10,07,05,52,19.30
2016,10,07,05,53,20.90
2016,10,07,05,54,8.10
2016,10,07,05,55,11.30
2016,10,07,05,56,6.40
2016,10,07,05,57,4.80
2016,10,07,05,58,9.60
2016,10,07,05,59,9.60
2016,10,07,06,00,9.60
2016,10,07,06,01,17.70
2016,10,07,06,02,14.50
2016,10,07,06,03,14.50
2016,10,07,06,04,14.50
2016,10,07,06,05,11.30
2016,10,07,06,06,17.70
2016,10,07,06,07,17.70
2016,10,07,06,08,11.30
2016,10,07,06,09,19.30
2016,10,07,06,10,9.60
2016,10,07,06,11,9.60
2016,10,07,06,12,9.60
2016,10,07,06,13,4.80
2016,10,07,06,14,6.40
2016,10,07,06,15,11.30
2016,10,07,06,16,16.10
2016,10,07,06,17,14.50
2016,10,07,06,18,17.70
2016,10,07,06,19,12.90
2016,10,07,06,20,17.70
2016,10,07,06,21,17.70
2016,10,07,06,22,8.10
2016,10,07,06,23,8.10
2016,10,07,06,24,11.30
2016,10,07,06,25,9.60
2016,10,07,06,26,16.10
2016,10,07,06,27,16.10
2016,10,07,06,28,14.50
2016,10,07,06,29,11.30
2016,10,07,06,30,9.60
2016,10,07,06,31,8.10
2016,10,07,06,32,8.10
2016,10,07,06,33,11.30
2016,10,07,06,34,9.60
2016,10,07,06,35,9.60
2016,10,07,06,36,16.10
2016,10,07,06,37,16.10
2016,10,07,06,38,11.30
2016,10,07,06,39,17.70
2016,10,07,06,40,19.30
2016,10,07,06,41,19.30
2016,10,07,06,42,14.50
2016,10,07,06,43,14.50
2016,10,07,06,44,14.50
2016,10,07,06,45,12.90
2016,10,07,06,46,11.30
2016,10,07,06,47,8.10
2016,10,07,06,48,6.40
2016,10,07,06,49,4.80
2016,10,07,06,50,4.80
2016,10,07,06,51,1.60
2016,10,07,06,52,3.20
2016,10,07,06,53,3.20
2016,10,07,06,54,9.60
2016,10,07,06,55,6.40
2016,10,07,06,56,14.50
2016,10,07,06,57,14.50
2016,10,07,06,58,14.50
2016,10,07,06,59,8.10
2016,10,07,07,00,6.40
2016,10,07,07,01,9.60
2016,10,07,07,02,9.60
2016,10,07,07,03,6.40
2016,10,07,07,04,8.10
2016,10,07,07,05,8.10
2016,10,07,07,06,14.50
2016,10,07,07,07,9.60
2016,10,07,07,08,14.50
2016,10,07,07,09,3.20
2016,10,07,07,10,3.20
2016,10,07,07,11,3.20
2016,10,07,07,12,12.90
2016,10,07,07,13,16.10
2016,10,07,07,14,17.70
2016,10,07,07,15,9.60
2016,10,07,07,16,6.40
2016,10,07,07,17,8.10
2016,10,07,07,18,14.50
2016,10,07,07,19,9.60
2016,10,07,07,20,14.50
2016,10,07,07,21,14.50
2016,10,07,07,22,14.50
2016,10,07,07,23,16.10
2016,10,07,07,24,11.30
2016,10,07,07,25,22.50
2016,10,07,07,26,29.00
2016,10,07,07,27,24.20
2016,10,07,07,28,11.30
2016,10,07,07,29,16.10
2016,10,07,07,30,8.10
2016,10,07,07,31,6.40
2016,10,07,07,32,17.70
2016,10,07,07,33,8.10
2016,10,07,07,34,17.70
2016,10,07,07,35,9.60
2016,10,07,07,36,9.60
2016,10,07,07,37,9.60
2016,10,07,07,38,30.60
2016,10,07,07,39,19.30
2016,10,07,07,40,11.30
2016,10,07,07,41,17.70
2016,10,07,07,42,9.60
2016,10,07,07,43,27.40
2016,10,07,07,44,22.50
2016,10,07,07,45,19.30
2016,10,07,07,46,16.10
2016,10,07,07,47,14.50
2016,10,07,07,48,30.60
2016,10,07,07,49,29.00
2016,10,07,07,50,25.70
2016,10,07,07,51,11.30
2016,10,07,07,52,8.10
2016,10,07,07,53,12.90
2016,10,07,07,54,25.70
2016,10,07,07,55,9.60
2016,10,07,07,56,4.80
2016,10,07,07,57,9.60
2016,10,07,07,58,17.70
2016,10,07,07,59,24.20
2016,10,07,08,00,12.90
2016,10,07,08,01,11.30
2016,10,07,08,02,12.90
2016,10,07,08,03,16.10
2016,10,07,08,04,9.60
2016,10,07,08,05,20.90
2016,10,07,08,06,6.40
2016,10,07,08,07,8.10
2016,10,07,08,08,9.60
2016,10,07,08,09,20.90
2016,10,07,08,10,24.20
2016,10,07,08,11,16.10
2016,10,07,08,12,11.30
2016,10,07,08,13,19.30
2016,10,07,08,14,17.70
2016,10,07,08,15,11.30
2016,10,07,08,16,20.90
2016,10,07,08,17,11.30
2016,10,07,08,18,14.50
2016,10,07,08,19,14.50
2016,10,07,08,20,14.50
2016,10,07,08,21,16.10
2016,10,07,08,22,8.10
2016,10,07,08,23,17.70
2016,10,07,08,24,17.70
2016,10,07,08,25,19.30
2016,10,07,08,26,14.50
2016,10,07,08,27,14.50
2016,10,07,08,28,17.70
2016,10,07,08,29,14.50
2016,10,07,08,30,14.50
2016,10,07,08,31,16.10
2016,10,07,08,32,16.10
2016,10,07,08,33,11.30
2016,10,07,08,34,16.10
2016,10,07,08,35,16.10
2016,10,07,08,36,16.10
2016,10,07,08,37,22.50
2016,10,07,08,38,19.30
2016,10,07,08,39,29.00
2016,10,07,08,40,19.30
2016,10,07,08,41,16.10
2016,10,07,08,42,11.30
2016,10,07,08,43,17.70
2016,10,07,08,44,22.50
2016,10,07,08,45,33.80
2016,10,07,08,46,22.50
2016,10,07,08,47,17.70
2016,10,07,08,48,20.90
2016,10,07,08,49,11.30
2016,10,07,08,50,14.50
2016,10,07,08,51,24.20
2016,10,07,08,52,11.30
2016,10,07,08,53,24.20
2016,10,07,08,54,24.20
2016,10,07,08,55,17.70
2016,10,07,08,56,20.90
2016,10,07,08,57,25.70
2016,10,07,08,58,24.20
2016,10,07,08,59,17.70
2016,10,07,09,00,16.10
2016,10,07,09,01,22.50
2016,10,07,09,02,17.70
2016,10,07,09,03,19.30
2016,10,07,09,04,8.10
2016,10,07,09,05,9.60
2016,10,07,09,06,4.80
2016,10,07,09,07,16.10
2016,10,07,09,08,20.90
2016,10,07,09,09,11.30
2016,10,07,09,10,17.70
2016,10,07,09,11,30.60
2016,10,07,09,12,27.40
2016,10,07,09,13,19.30
2016,10,07,09,14,19.30
2016,10,07,09,15,19.30
2016,10,07,09,16,14.50
2016,10,07,09,17,16.10
2016,10,07,09,18,25.70
2016,10,07,09,19,20.90
2016,10,07,09,20,20.90
2016,10,07,09,21,20.90
2016,10,07,09,22,19.30
2016,10,07,09,23,24.20
2016,10,07,09,24,19.30
2016,10,07,09,25,17.70
2016,10,07,09,26,17.70
2016,10,07,09,27,24.20
2016,10,07,09,28,20.90
2016,10,07,09,29,14.50
2016,10,07,09,30,14.50
2016,10,07,09,31,29.00
2016,10,07,09,32,25.70
2016,10,07,09,33,27.40
2016,10,07,09,34,27.40
2016,10,07,09,35,25.70
2016,10,07,09,36,11.30
2016,10,07,09,37,19.30
2016,10,07,09,38,17.70
2016,10,07,09,39,17.70
2016,10,07,09,40,30.60
2016,10,07,09,41,25.70
2016,10,07,09,42,24.20
2016,10,07,09,43,20.90
2016,10,07,09,44,11.30
2016,10,07,09,45,19.30
2016,10,07,09,46,12.90
2016,10,07,09,47,9.60
2016,10,07,09,48,16.10
2016,10,07,09,49,16.10
2016,10,07,09,50,16.10
2016,10,07,09,51,12.90
2016,10,07,09,52,16.10
2016,10,07,09,53,16.10
2016,10,07,09,54,17.70
2016,10,07,09,55,20.90
2016,10,07,09,56,16.10
2016,10,07,09,57,14.50
2016,10,07,09,58,19.30
2016,10,07,09,59,30.60
2016,10,07,10,00,24.20
2016,10,07,10,01,24.20
2016,10,07,10,02,17.70
2016,10,07,10,03,22.50
2016,10,07,10,04,25.70
2016,10,07,10,05,17.70
2016,10,07,10,06,14.50
2016,10,07,10,07,29.00
2016,10,07,10,08,14.50
2016,10,07,10,09,17.70
2016,10,07,10,10,17.70
2016,10,07,10,11,35.40
2016,10,07,10,12,24.20
2016,10,07,10,13,25.70
2016,10,07,10,14,17.70
2016,10,07,10,15,12.90
2016,10,07,10,16,19.30
2016,10,07,10,17,30.60
2016,10,07,10,18,27.40
2016,10,07,10,19,25.70
2016,10,07,10,20,20.90
2016,10,07,10,21,19.30
2016,10,07,10,22,14.50
2016,10,07,10,23,8.10
2016,10,07,10,24,16.10
2016,10,07,10,25,19.30
2016,10,07,10,26,22.50
2016,10,07,10,27,19.30
2016,10,07,10,28,16.10
2016,10,07,10,29,17.70
2016,10,07,10,30,14.50
2016,10,07,10,31,11.30
2016,10,07,10,32,17.70
2016,10,07,10,33,22.50
2016,10,07,10,34,19.30
2016,10,07,10,35,19.30
2016,10,07,10,36,16.10
2016,10,07,10,37,20.90
2016,10,07,10,38,16.10
2016,10,07,10,39,25.70
2016,10,07,10,40,14.50
2016,10,07,10,41,8.10
2016,10,07,10,42,11.30
2016,10,07,10,43,24.20
2016,10,07,10,44,17.70
2016,10,07,10,45,22.50
2016,10,07,10,46,20.90
2016,10,07,10,47,17.70
2016,10,07,10,48,11.30
2016,10,07,10,49,19.30
2016,10,07,10,50,20.90
2016,10,07,10,51,9.60
2016,10,07,10,52,20.90
2016,10,07,10,53,22.50
2016,10,07,10,54,22.50
2016,10,07,10,55,16.10
2016,10,07,10,56,19.30
2016,10,07,10,57,19.30
2016,10,07,10,58,17.70
2016,10,07,10,59,11.30
2016,10,07,11,00,11.30
2016,10,07,11,01,17.70
2016,10,07,11,02,19.30
2016,10,07,11,03,19.30
2016,10,07,11,04,24.20
2016,10,07,11,05,22.50
2016,10,07,11,06,20.90
2016,10,07,11,07,12.90
2016,10,07,11,08,16.10
2016,10,07,11,09,9.60
2016,10,07,11,10,17.70
2016,10,07,11,11,22.50
2016,10,07,11,12,17.70
2016,10,07,11,13,24.20
2016,10,07,11,14,25.70
2016,10,07,11,15,29.00
2016,10,07,11,16,35.40
2016,10,07,11,17,19.30
2016,10,07,11,18,17.70
2016,10,07,11,19,25.70
2016,10,07,11,20,27.40
2016,10,07,11,21,16.10
2016,10,07,11,22,19.30
2016,10,07,11,23,17.70
2016,10,07,11,24,17.70
2016,10,07,11,25,16.10
2016,10,07,11,26,25.70
2016,10,07,11,27,33.80
2016,10,07,11,28,24.20
2016,10,07,11,29,29.00
2016,10,07,11,30,24.20
2016,10,07,11,31,17.70
2016,10,07,11,32,24.20
2016,10,07,11,33,32.20
2016,10,07,11,34,22.50
2016,10,07,11,35,20.90
2016,10,07,11,36,24.20
2016,10,07,11,37,20.90
2016,10,07,11,38,25.70
2016,10,07,11,39,29.00
2016,10,07,11,40,20.90
2016,10,07,11,41,25.70
2016,10,07,11,42,25.70
2016,10,07,11,43,24.20
2016,10,07,11,44,30.60
2016,10,07,11,45,32.20
2016,10,07,11,46,32.20
2016,10,07,11,47,24.20
2016,10,07,11,48,30.60
2016,10,07,11,49,38.60
2016,10,07,11,50,38.60
2016,10,07,11,51,38.60
2016,10,07,11,52,30.60
2016,10,07,11,53,25.70
2016,10,07,11,54,30.60
2016,10,07,11,55,35.40
2016,10,07,11,56,30.60
2016,10,07,11,57,35.40
2016,10,07,11,58,35.40
2016,10,07,11,59,35.40
2016,10,07,12,00,32.20
2016,10,07,12,01,30.60
2016,10,07,12,02,30.60
2016,10,07,12,03,33.80
2016,10,07,12,04,30.60
2016,10,07,12,05,29.00
2016,10,07,12,06,27.40
2016,10,07,12,07,30.60
2016,10,07,12,08,25.70
2016,10,07,12,09,29.00
2016,10,07,12,10,29.00
2016,10,07,12,11,27.40
2016,10,07,12,12,32.20
2016,10,07,12,13,37.00
2016,10,07,12,14,30.60
2016,10,07,12,15,25.70
2016,10,07,12,16,37.00
2016,10,07,12,17,37.00
2016,10,07,12,18,33.80
2016,10,07,12,19,25.70
2016,10,07,12,20,33.80
2016,10,07,12,21,27.40
2016,10,07,12,22,33.80
2016,10,07,12,23,35.40
2016,10,07,12,24,29.00
2016,10,07,12,25,29.00
2016,10,07,12,26,30.60
2016,10,07,12,27,30.60
2016,10,07,12,28,33.80
2016,10,07,12,29,32.20
2016,10,07,12,30,30.60
2016,10,07,12,31,27.40
2016,10,07,12,32,25.70
2016,10,07,12,33,27.40
2016,10,07,12,34,25.70
2016,10,07,12,35,29.00
2016,10,07,12,36,22.50
2016,10,07,12,37,35.40
2016,10,07,12,38,27.40
2016,10,07,12,39,25.70
2016,10,07,12,40,29.00
2016,10,07,12,41,29.00
2016,10,07,12,42,24.20
2016,10,07,12,43,22.50
2016,10,07,12,44,29.00
2016,10,07,12,45,27.40
2016,10,07,12,46,25.70
2016,10,07,12,47,33.80
2016,10,07,12,48,27.40
2016,10,07,12,49,32.20
2016,10,07,12,50,29.00
2016,10,07,12,51,32.20
2016,10,07,12,52,27.40
2016,10,07,12,53,17.70
2016,10,07,12,54,22.50
2016,10,07,12,55,19.30
2016,10,07,12,56,27.40
2016,10,07,12,57,25.70
2016,10,07,12,58,22.50
2016,10,07,12,59,27.40
2016,10,07,13,00,30.60
2016,10,07,13,01,30.60
2016,10,07,13,02,27.40
2016,10,07,13,03,24.20
2016,10,07,13,04,27.40
2016,10,07,13,05,24.20
2016,10,07,13,06,30.60
2016,10,07,13,07,27.40
2016,10,07,13,08,25.70
2016,10,07,13,09,27.40
2016,10,07,13,10,25.70
2016,10,07,13,11,25.70
2016,10,07,13,12,16.10
2016,10,07,13,13,25.70
2016,10,07,13,14,35.40
2016,10,07,13,15,20.90
2016,10,07,13,16,22.50
2016,10,07,13,17,17.70
2016,10,07,13,18,17.70
2016,10,07,13,19,14.50
2016,10,07,13,20,14.50
2016,10,07,13,21,22.50
2016,10,07,13,22,24.20
2016,10,07,13,23,22.50
2016,10,07,13,24,22.50
2016,10,07,13,25,22.50
2016,10,07,13,26,20.90
2016,10,07,13,27,16.10
2016,10,07,13,28,12.90
2016,10,07,13,29,17.70
2016,10,07,13,30,22.50
2016,10,07,13,31,25.70
2016,10,07,13,32,11.30
2016,10,07,13,33,17.70
2016,10,07,13,34,14.50
2016,10,07,13,35,12.90
2016,10,07,13,36,17.70
2016,10,07,13,37,22.50
2016,10,07,13,38,27.40
2016,10,07,13,39,25.70
2016,10,07,13,40,11.30
2016,10,07,13,41,11.30
2016,10,07,13,42,25.70
2016,10,07,13,43,22.50
2016,10,07,13,44,19.30
2016,10,07,13,45,14.50
2016,10,07,13,46,14.50
2016,10,07,13,47,22.50
2016,10,07,13,48,24.20
2016,10,07,13,49,16.10
2016,10,07,13,50,19.30
2016,10,07,13,51,16.10
2016,10,07,13,52,11.30
2016,10,07,13,53,16.10
2016,10,07,13,54,16.10
2016,10,07,13,55,11.30
2016,10,07,13,56,3.20
2016,10,07,13,57,8.10
2016,10,07,13,58,14.50
2016,10,07,13,59,11.30
2016,10,07,14,00,14.50
2016,10,07,14,01,14.50
2016,10,07,14,02,9.60
2016,10,07,14,03,11.30
2016,10,07,14,04,17.70
2016,10,07,14,05,22.50
2016,10,07,14,06,20.90
2016,10,07,14,07,16.10
2016,10,07,14,08,19.30
2016,10,07,14,09,22.50
2016,10,07,14,10,12.90
2016,10,07,14,11,17.70
2016,10,07,14,12,16.10
2016,10,07,14,13,16.10
2016,10,07,14,14,16.10
2016,10,07,14,15,14.50
2016,10,07,14,16,11.30
2016,10,07,14,17,16.10
2016,10,07,14,18,14.50
2016,10,07,14,19,9.60
2016,10,07,14,20,16.10
2016,10,07,14,21,19.30
2016,10,07,14,22,14.50
2016,10,07,14,23,14.50
2016,10,07,14,24,4.80
2016,10,07,14,25,24.20
2016,10,07,14,26,17.70
2016,10,07,14,27,11.30
2016,10,07,14,28,11.30
2016,10,07,14,29,8.10
2016,10,07,14,30,11.30
2016,10,07,14,31,9.60
2016,10,07,14,32,9.60
2016,10,07,14,33,11.30
2016,10,07,14,34,17.70
2016,10,07,14,35,16.10
2016,10,07,14,36,17.70
2016,10,07,14,37,17.70
2016,10,07,14,38,16.10
2016,10,07,14,39,16.10
2016,10,07,14,40,16.10
2016,10,07,14,41,9.60
2016,10,07,14,42,11.30
2016,10,07,14,43,9.60
2016,10,07,14,44,9.60
2016,10,07,14,45,11.30
2016,10,07,14,46,14.50
2016,10,07,14,47,14.50
2016,10,07,14,48,14.50
2016,10,07,14,49,11.30
2016,10,07,14,50,17.70
2016,10,07,14,51,16.10
2016,10,07,14,52,17.70
2016,10,07,14,53,16.10
2016,10,07,14,54,16.10
2016,10,07,14,55,11.30
2016,10,07,14,56,11.30
2016,10,07,14,57,14.50
2016,10,07,14,58,9.60
2016,10,07,14,59,9.60
2016,10,07,15,00,9.60
2016,10,07,15,01,6.40
2016,10,07,15,02,8.10
2016,10,07,15,03,11.30
2016,10,07,15,04,9.60
2016,10,07,15,05,8.10
2016,10,07,15,06,6.40
2016,10,07,15,07,9.60
2016,10,07,15,08,11.30
2016,10,07,15,09,14.50
2016,10,07,15,10,16.10
2016,10,07,15,11,14.50
2016,10,07,15,12,11.30
2016,10,07,15,13,4.80
2016,10,07,15,14,6.40
2016,10,07,15,15,6.40
2016,10,07,15,16,3.20
2016,10,07,15,17,14.50
2016,10,07,15,18,16.10
2016,10,07,15,19,11.30
2016,10,07,15,20,11.30
2016,10,07,15,21,4.80
2016,10,07,15,22,9.60
2016,10,07,15,23,8.10
2016,10,07,15,24,6.40
2016,10,07,15,25,12.90
2016,10,07,15,26,14.50
2016,10,07,15,27,16.10
2016,10,07,15,28,17.70
2016,10,07,15,29,11.30
2016,10,07,15,30,8.10
2016,10,07,15,31,8.10
2016,10,07,15,32,9.60
2016,10,07,15,33,11.30
2016,10,07,15,34,9.60
2016,10,07,15,35,22.50
2016,10,07,15,36,8.10
2016,10,07,15,37,19.30
2016,10,07,15,38,11.30
2016,10,07,15,39,6.40
2016,10,07,15,40,4.80
2016,10,07,15,41,4.80
2016,10,07,15,42,6.40
2016,10,07,15,43,4.80
2016,10,07,15,44,8.10
2016,10,07,15,45,3.20
2016,10,07,15,46,3.20
2016,10,07,15,47,4.80
2016,10,07,15,48,17.70
2016,10,07,15,49,14.50
2016,10,07,15,50,17.70
2016,10,07,15,51,9.60
2016,10,07,15,52,8.10
2016,10,07,15,53,3.20
2016,10,07,15,54,9.60
2016,10,07,15,55,8.10
2016,10,07,15,56,14.50
2016,10,07,15,57,3.20
2016,10,07,15,58,4.80
2016,10,07,15,59,4.80
2016,10,07,16,00,20.90
2016,10,07,16,01,6.40
2016,10,07,16,02,12.90
2016,10,07,16,03,11.30
2016,10,07,16,04,9.60
2016,10,07,16,05,4.80
2016,10,07,16,06,9.60
2016,10,07,16,07,14.50
2016,10,07,16,08,12.90
2016,10,07,16,09,16.10
2016,10,07,16,10,14.50
2016,10,07,16,11,12.90
2016,10,07,16,12,9.60
2016,10,07,16,13,9.60
2016,10,07,16,14,14.50
2016,10,07,16,15,6.40
2016,10,07,16,16,8.10
2016,10,07,16,17,1.60
2016,10,07,16,18,11.30
2016,10,07,16,19,9.60
2016,10,07,16,20,11.30
2016,10,07,16,21,8.10
2016,10,07,16,22,8.10
2016,10,07,16,23,11.30
2016,10,07,16,24,8.10
2016,10,07,16,25,19.30
2016,10,07,16,26,9.60
2016,10,07,16,27,16.10
2016,10,07,16,28,14.50
2016,10,07,16,29,19.30
2016,10,07,16,30,16.10
2016,10,07,16,31,9.60
2016,10,07,16,32,14.50
2016,10,07,16,33,9.60
2016,10,07,16,34,16.10
2016,10,07,16,35,11.30
2016,10,07,16,36,4.80
2016,10,07,16,37,3.20
2016,10,07,16,38,3.20
2016,10,07,16,39,3.20
2016,10,07,16,40,3.20
2016,10,07,16,41,1.60
2016,10,07,16,42,1.60
2016,10,07,16,43,1.60
2016,10,07,16,44,3.20
2016,10,07,16,45,1.60
2016,10,07,16,46,12.90
2016,10,07,16,47,11.30
2016,10,07,16,48,11.30
2016,10,07,16,49,9.60
2016,10,07,16,50,8.10
2016,10,07,16,51,6.40
2016,10,07,16,52,11.30
2016,10,07,16,53,9.60
2016,10,07,16,54,1.60
2016,10,07,16,55,3.20
2016,10,07,16,56,1.60
2016,10,07,16,57,1.60
2016,10,07,16,58,3.20
2016,10,07,16,59,1.60
2016,10,07,17,00,8.10
2016,10,07,17,01,6.40
2016,10,07,17,02,6.40
2016,10,07,17,03,4.80
2016,10,07,17,04,3.20
2016,10,07,17,05,3.20
2016,10,07,17,06,4.80
2016,10,07,17,07,6.40
2016,10,07,17,08,9.60
2016,10,07,17,09,8.10
2016,10,07,17,10,8.10
2016,10,07,17,11,6.40
2016,10,07,17,12,1.60
2016,10,07,17,13,1.60
2016,10,07,17,14,1.60
2016,10,07,17,15,3.20
2016,10,07,17,16,1.60
2016,10,07,17,17,3.20
2016,10,07,17,18,3.20
2016,10,07,17,19,1.60
2016,10,07,17,20,1.60
2016,10,07,17,21,1.60
2016,10,07,17,22,1.60
2016,10,07,17,23,1.60
2016,10,07,17,24,1.60
2016,10,07,17,25,4.80
2016,10,07,17,26,3.20
2016,10,07,17,27,3.20
2016,10,07,17,28,1.60
2016,10,07,17,29,3.20